PROFILE

 METAR AND TAF INFORMATION
ADDS - METARS form results

(0555 UTC 22 September 2019)
http://aviationweather.gov/metar/data/
 
GLRB 220530Z 00000KT 9999 BKN011 FEW022CB 24/23 Q1012 RMK CB-W
GLRB 220500Z 00000KT 9999 BKN011 FEW022CB 24/23 Q1012 RMK CB-W
TAF GLRB 220400Z 2206/2312 21010KT 9999 BKN017 BECMG 2206/2208 00000KT 9000 TEMPO 2210/2214 23010KT 9999 BKN018 BECMG 2216/2218 20007KT TS SCT014 FEW025CB 

 AIRPORT MAP

 RUNWAY INFORMATION
Runway 04 Runway length 11000 ft Runway width 150 ft
Runway elevation 29 ft Runway displaced threshold 0 ft Runway heading 31
Runway 22 Runway length 11000 ft Runway width 150 ft
Runway elevation 25 ft Runway displaced threshold 1200 ft Runway heading 211

 AIRPORT FREQUENCIES
Type A/G Name A/G VOICE Frequency 345.2 MHZ
Type APP Name ROBERTS AP Frequency 124.5 MHZ
Type GND Name GND Frequency 121.9 MHZ
Type TWR Name ROBERTS TW Frequency 118.3 MHZ

 AIRPORT NEAR NAVIGATION AIDS
Type NDB Name Monrovia Roberts Frequency 263 KHZ
Type NDB Name Monrovia Roberts Frequency 372 KHZ
Type VOR-DME Name Monrovia Roberts Frequency 113800 KHZ